When you browse on this site, cookies collect data to enhance your experience and personalize the content and advertising you see.
Visit our Privacy Policy to learn more. By continuing to use the site, you agree to this use of cookies and data.
  • In Switzerland
  • List of Countries
  • For 7 days
  • Water Temperature
  • Weather Map
  • Weather Widgets
  • user-avatar
    Login

    Hourly Weather Parakou

    Today, 23 October, Wednesday

    Time Temperature Precipitation Wind Pressure Humidity
    00:00 +25°C° 0 mm 1 mps 725 mmHg 92%
    01:00 +25°C° 0 mm 1 mps 725 mmHg 92%
    02:00 +25°C° 0 mm 1 mps 725 mmHg 92%
    03:00 +25°C° 0 mm 1 mps 725 mmHg 92%
    04:00 +24°C° 0 mm 1 mps 725 mmHg 93%
    05:00 +24°C° 0 mm 1 mps 725 mmHg 94%
    06:00 +24°C° 0 mm 1 mps 725 mmHg 95%
    07:00 +25°C° 0 mm 1 mps 726 mmHg 91%
    08:00 +27°C° 0 mm 2 mps 727 mmHg 87%
    09:00 +28°C° 0 mm 2 mps 727 mmHg 82%
    10:00 +30°C° 0 mm 1 mps 727 mmHg 76%
    11:00 +31°C° 0 mm 1 mps 726 mmHg 70%
    12:00 +33°C° 0 mm 1 mps 726 mmHg 63%
    13:00 +32°C° 0.8 mm 1 mps 725 mmHg 66%
    14:00 +32°C° 0.8 mm 1 mps 724 mmHg 68%
    15:00 +31°C° 0.8 mm 1 mps 724 mmHg 71%
    16:00 +30°C° 0.8 mm 1 mps 724 mmHg 76%
    17:00 +28°C° 0.8 mm 1 mps 725 mmHg 81%
    18:00 +27°C° 0.8 mm 1 mps 725 mmHg 85%
    19:00 +27°C° 0 mm 1 mps 725 mmHg 87%
    20:00 +26°C° 0 mm 1 mps 726 mmHg 88%
    21:00 +26°C° 0 mm 1 mps 726 mmHg 89%
    22:00 +25°C° 0 mm 2 mps 726 mmHg 90%
    23:00 +25°C° 0 mm 2 mps 726 mmHg 91%

    Tomorrow, 24 October, Thursday

    Time Temperature Precipitation Wind Pressure Humidity
    00:00 +25°C° 0 mm 2 mps 726 mmHg 93%
    01:00 +25°C° 0 mm 2 mps 726 mmHg 94%
    02:00 +24°C° 0 mm 2 mps 726 mmHg 95%
    03:00 +24°C° 0 mm 2 mps 725 mmHg 97%
    04:00 +24°C° 0 mm 2 mps 726 mmHg 97%
    05:00 +24°C° 0 mm 1 mps 726 mmHg 98%
    06:00 +24°C° 0 mm 1 mps 727 mmHg 99%
    07:00 +25°C° 0 mm 2 mps 727 mmHg 94%
    08:00 +26°C° 0 mm 2 mps 727 mmHg 90%
    09:00 +28°C° 0 mm 2 mps 728 mmHg 85%
    10:00 +29°C° 0 mm 2 mps 727 mmHg 80%
    11:00 +30°C° 0 mm 2 mps 727 mmHg 75%
    12:00 +31°C° 0 mm 1 mps 727 mmHg 69%
    13:00 +31°C° 0 mm 1 mps 726 mmHg 69%
    14:00 +31°C° 0 mm 1 mps 726 mmHg 69%
    15:00 +31°C° 0 mm 1 mps 725 mmHg 68%
    16:00 +30°C° 1 mm 1 mps 725 mmHg 74%
    17:00 +28°C° 1 mm 1 mps 725 mmHg 80%
    18:00 +27°C° 1 mm 1 mps 725 mmHg 86%
    19:00 +26°C° 0.1 mm 1 mps 726 mmHg 87%
    20:00 +26°C° 0.1 mm 2 mps 727 mmHg 89%
    21:00 +25°C° 0.1 mm 2 mps 727 mmHg 90%
    22:00 +25°C° 0 mm 2 mps 727 mmHg 92%
    23:00 +25°C° 0 mm 2 mps 727 mmHg 94%

    Day after tomorrow, 25 October, Friday

    Time Temperature Precipitation Wind Pressure Humidity
    00:00 +24°C° 0 mm 2 mps 726 mmHg 96%
    01:00 +24°C° 0 mm 2 mps 726 mmHg 96%
    02:00 +24°C° 0 mm 2 mps 726 mmHg 96%
    03:00 +24°C° 0 mm 2 mps 726 mmHg 96%
    04:00 +24°C° 0 mm 1 mps 726 mmHg 96%
    05:00 +24°C° 0 mm 1 mps 726 mmHg 95%
    06:00 +24°C° 0 mm 1 mps 726 mmHg 95%
    07:00 +25°C° 0 mm 1 mps 727 mmHg 93%
    08:00 +26°C° 0 mm 1 mps 727 mmHg 91%
    09:00 +26°C° 0 mm 1 mps 728 mmHg 89%
    10:00 +27°C° 0 mm 1 mps 727 mmHg 84%
    11:00 +28°C° 0 mm 1 mps 727 mmHg 79%
    12:00 +30°C° 0 mm 1 mps 726 mmHg 75%
    13:00 +30°C° 0 mm 1 mps 726 mmHg 71%
    14:00 +31°C° 0 mm 1 mps 725 mmHg 67%
    15:00 +32°C° 0 mm 1 mps 725 mmHg 63%
    16:00 +30°C° 0 mm 1 mps 725 mmHg 68%
    17:00 +29°C° 0 mm 1 mps 725 mmHg 73%
    18:00 +27°C° 0 mm 1 mps 725 mmHg 78%
    19:00 +27°C° 0 mm 1 mps 726 mmHg 79%
    20:00 +26°C° 0 mm 1 mps 726 mmHg 81%
    21:00 +26°C° 0 mm 1 mps 727 mmHg 82%
    22:00 +26°C° 0 mm 1 mps 727 mmHg 84%
    23:00 +25°C° 0 mm 1 mps 727 mmHg 86%

    26 October, Saturday

    Time Temperature Precipitation Wind Pressure Humidity
    00:00 +25°C° 0 mm 2 mps 727 mmHg 88%
    01:00 +25°C° 0 mm 2 mps 726 mmHg 90%
    02:00 +24°C° 0 mm 2 mps 726 mmHg 92%
    03:00 +24°C° 0 mm 2 mps 726 mmHg 94%
    04:00 +24°C° 0 mm 2 mps 726 mmHg 95%
    05:00 +24°C° 0 mm 2 mps 726 mmHg 95%
    06:00 +24°C° 0 mm 2 mps 727 mmHg 96%
    07:00 +25°C° 0 mm 2 mps 727 mmHg 89%
    08:00 +27°C° 0 mm 2 mps 728 mmHg 83%
    09:00 +28°C° 0 mm 2 mps 728 mmHg 76%
    10:00 +29°C° 0.4 mm 2 mps 728 mmHg 73%
    11:00 +30°C° 0.4 mm 2 mps 727 mmHg 69%
    12:00 +31°C° 0.4 mm 2 mps 727 mmHg 65%
    13:00 +31°C° 0.2 mm 2 mps 726 mmHg 65%
    14:00 +31°C° 0.2 mm 2 mps 726 mmHg 65%
    15:00 +31°C° 0.2 mm 1 mps 725 mmHg 65%
    16:00 +30°C° 0.3 mm 2 mps 726 mmHg 72%
    17:00 +28°C° 0.3 mm 2 mps 726 mmHg 78%
    18:00 +27°C° 0.3 mm 2 mps 726 mmHg 85%
    19:00 +26°C° 0 mm 2 mps 726 mmHg 87%
    20:00 +26°C° 0 mm 2 mps 727 mmHg 88%
    21:00 +25°C° 0 mm 2 mps 727 mmHg 90%
    22:00 +25°C° 0 mm 2 mps 727 mmHg 91%
    23:00 +24°C° 0 mm 2 mps 727 mmHg 93%

    27 October, Sunday

    Time Temperature Precipitation Wind Pressure Humidity
    00:00 +24°C° 0 mm 1 mps 727 mmHg 94%
    01:00 +24°C° 0 mm 1 mps 726 mmHg 95%
    02:00 +24°C° 0 mm 1 mps 726 mmHg 96%
    03:00 +23°C° 0 mm 1 mps 726 mmHg 97%
    04:00 +23°C° 0 mm 1 mps 726 mmHg 96%
    05:00 +23°C° 0 mm 1 mps 726 mmHg 96%
    06:00 +23°C° 0 mm 1 mps 726 mmHg 95%
    07:00 +25°C° 0 mm 1 mps 727 mmHg 88%
    08:00 +27°C° 0 mm 2 mps 727 mmHg 81%
    09:00 +28°C° 0 mm 2 mps 727 mmHg 74%
    10:00 +30°C° 0 mm 2 mps 727 mmHg 68%
    11:00 +31°C° 0 mm 1 mps 726 mmHg 63%
    12:00 +33°C° 0 mm 1 mps 726 mmHg 57%
    13:00 +33°C° 0 mm 1 mps 725 mmHg 56%
    14:00 +31°C° 0 mm 0 mps 725 mmHg 54%
    15:00 +32°C° 0 mm 0 mps 724 mmHg 52%
    16:00 +32°C° 0.1 mm 1 mps 725 mmHg 60%
    17:00 +30°C° 0.1 mm 1 mps 725 mmHg 67%
    18:00 +28°C° 0.1 mm 2 mps 725 mmHg 74%
    19:00 +27°C° 0.2 mm 2 mps 726 mmHg 78%
    20:00 +26°C° 0.2 mm 2 mps 726 mmHg 82%
    21:00 +26°C° 0.2 mm 2 mps 727 mmHg 85%
    22:00 +25°C° 0.3 mm 2 mps 727 mmHg 87%
    23:00 +25°C° 0.3 mm 2 mps 726 mmHg 89%

    28 October, Monday

    Time Temperature Precipitation Wind Pressure Humidity
    00:00 +25°C° 0.3 mm 2 mps 726 mmHg 91%
    01:00 +24°C° 0.1 mm 2 mps 726 mmHg 92%
    02:00 +24°C° 0.1 mm 2 mps 726 mmHg 93%
    03:00 +23°C° 0.1 mm 2 mps 725 mmHg 95%
    04:00 +23°C° 0 mm 1 mps 725 mmHg 95%
    05:00 +23°C° 0 mm 1 mps 726 mmHg 95%
    06:00 +23°C° 0 mm 1 mps 726 mmHg 95%
    07:00 +25°C° 0 mm 1 mps 726 mmHg 88%
    08:00 +27°C° 0 mm 1 mps 727 mmHg 82%
    09:00 +28°C° 0 mm 2 mps 727 mmHg 76%
    10:00 +30°C° 0 mm 2 mps 727 mmHg 70%
    11:00 +31°C° 0 mm 1 mps 726 mmHg 64%
    12:00 +32°C° 0 mm 1 mps 726 mmHg 58%
    13:00 +32°C° 0.8 mm 1 mps 725 mmHg 60%
    14:00 +31°C° 0.8 mm 1 mps 725 mmHg 63%
    15:00 +31°C° 0.8 mm 1 mps 724 mmHg 66%
    16:00 +29°C° 0.7 mm 1 mps 724 mmHg 72%
    17:00 +28°C° 0.7 mm 1 mps 725 mmHg 79%
    18:00 +26°C° 0.7 mm 2 mps 725 mmHg 85%
    19:00 +26°C° 0 mm 2 mps 725 mmHg 86%
    20:00 +25°C° 0 mm 2 mps 726 mmHg 87%
    21:00 +25°C° 0 mm 2 mps 727 mmHg 88%
    22:00 +25°C° 0.1 mm 1 mps 726 mmHg 89%
    23:00 +25°C° 0.1 mm 1 mps 726 mmHg 90%

    29 October, Tuesday

    Time Temperature Precipitation Wind Pressure Humidity
    00:00 +24°C° 0.1 mm 1 mps 726 mmHg 91%
    01:00 +24°C° 0 mm 1 mps 726 mmHg 92%
    02:00 +24°C° 0 mm 1 mps 726 mmHg 93%
    03:00 +21°C° 0 mm 0 mps 725 mmHg 94%
    04:00 +21°C° 0 mm 0 mps 725 mmHg 94%
    05:00 +23°C° 0 mm 1 mps 726 mmHg 95%
    06:00 +23°C° 0 mm 1 mps 726 mmHg 95%
    07:00 +25°C° 0 mm 1 mps 726 mmHg 87%
    08:00 +26°C° 0 mm 0 mps 727 mmHg 79%
    09:00 +28°C° 0 mm 0 mps 727 mmHg 71%
    10:00 +31°C° 0 mm 1 mps 727 mmHg 65%
    11:00 +31°C° 0 mm 2 mps 726 mmHg 59%
    12:00 +32°C° 0 mm 2 mps 726 mmHg 53%
    13:00 +33°C° 0 mm 3 mps 725 mmHg 53%
    14:00 +33°C° 0 mm 3 mps 725 mmHg 53%
    15:00 +33°C° 0 mm 3 mps 724 mmHg 53%
    16:00 +30°C° 0.2 mm 2 mps 724 mmHg 62%
    17:00 +28°C° 0.2 mm 2 mps 725 mmHg 71%
    18:00 +26°C° 0.2 mm 2 mps 725 mmHg 80%
    19:00 +26°C° 0 mm 1 mps 725 mmHg 80%
    20:00 +26°C° 0 mm 1 mps 726 mmHg 80%
    21:00 +26°C° 0 mm 1 mps 726 mmHg 79%
    22:00 +25°C° 0 mm 1 mps 726 mmHg 81%
    23:00 +25°C° 0 mm 1 mps 726 mmHg 83%
    Show more